Date,TemperatureHighF,TemperatureAvgF,TemperatureLowF,DewpointHighF,DewpointAvgF,DewpointLowF,HumidityHigh,HumidityAvg,HumidityLow,PressureMaxIn,PressureMinIn,WindSpeedMaxMPH,WindSpeedAvgMPH,GustSpeedMaxMPH,PrecipitationSumIn
2013-1-2,34.0,32.6,31.3,16.2,13.4,11.7,48,45,42,30.27,30.21,0,0,0,0.00
2013-1-3,38.5,32.4,28.8,23.8,18.5,11.7,71,56,44,30.29,30.18,0,0,0,0.00
2013-1-4,44.5,36.5,29.3,25.9,20.6,17.5,83,54,37,30.24,30.13,0,0,0,0.00
2013-1-5,44.5,38.3,32.8,32.9,21.8,18.2,80,52,37,30.41,30.18,0,0,0,0.00
2013-1-6,51.4,43.4,33.8,34.5,29.5,25.0,90,60,37,30.22,30.04,0,0,0,0.00
2013-1-7,45.7,42.0,33.8,30.7,26.9,23.9,84,56,43,30.46,30.17,0,0,0,0.00
2013-1-8,52.5,41.3,31.4,35.5,32.0,27.3,89,71,46,30.45,30.38,0,0,0,0.00
2013-1-9,53.6,42.3,34.9,42.5,37.3,27.1,94,83,36,30.41,30.25,0,0,0,0.00
2013-1-10,54.2,48.3,43.4,31.2,28.1,24.8,60,46,33,30.62,30.41,0,0,0,0.00
2013-1-11,44.4,42.1,38.5,42.9,36.5,29.1,100,82,57,30.52,30.12,0,0,0,0.00
2013-1-12,51.5,45.0,42.2,47.1,44.0,42.2,100,96,83,30.20,30.12,0,0,0,0.00
2013-1-13,53.7,48.6,42.2,53.7,48.6,42.2,100,100,99,30.18,30.00,0,0,0,0.00
2013-1-14,59.4,52.5,40.5,58.7,45.5,36.2,100,78,61,30.32,29.97,0,0,0,0.00
2013-1-15,40.7,39.2,36.1,39.7,38.3,35.5,99,97,90,30.37,30.17,0,0,0,0.00
2013-1-16,41.4,38.2,35.2,41.1,37.8,34.6,100,99,96,30.18,29.87,0,0,0,0.00
2013-1-17,43.8,41.6,39.1,42.0,35.0,27.9,100,79,54,30.16,29.99,0,0,0,0.00
2013-1-18,39.2,35.4,32.7,30.3,17.4,3.9,71,49,27,30.53,30.05,0,0,0,0.00
2013-1-19,53.5,41.5,32.5,28.1,25.2,21.0,72,54,32,30.45,30.00,0,0,0,0.00
2013-1-20,59.4,47.0,38.8,31.2,21.2,3.8,66,39,14,30.10,29.84,0,0,0,0.00
2013-1-21,46.2,38.1,31.3,28.6,19.5,10.1,57,47,34,30.13,29.80,0,0,0,0.00
2013-1-22,31.2,22.1,18.7,11.1,-3.0,-9.4,45,33,22,30.32,29.94,0,0,0,0.00
2013-1-23,26.4,21.7,15.7,14.6,0.1,-4.0,72,40,27,30.38,30.18,0,0,0,0.00
2013-1-24,27.2,22.3,18.1,18.0,8.9,-3.5,90,60,27,30.55,30.12,0,0,0,0.00
2013-1-25,24.1,21.6,19.4,18.9,7.4,-1.6,86,57,34,30.54,30.10,0,0,0,0.00
2013-1-26,34.8,28.9,23.4,23.6,20.7,18.4,83,72,55,30.46,30.11,0,0,0,0.00
2013-1-27,37.9,31.7,27.8,23.8,19.7,16.7,78,61,46,30.63,30.47,0,0,0,0.00
2013-1-28,47.2,37.4,31.9,43.2,33.9,23.1,97,87,69,30.53,30.07,0,0,0,0.00
2013-1-29,68.7,54.1,42.9,53.2,47.4,41.5,95,79,56,30.15,30.00,0,0,0,0.00
2013-1-30,70.8,62.3,55.9,62.0,57.5,51.0,99,85,73,30.00,29.23,0,0,0,0.00
2013-1-31,63.4,44.6,32.0,62.5,26.0,9.9,98,50,29,29.95,29.17,0,0,0,0.00